Location: Newark
(41.6500°N, 71.4833°W)
Time: 07:22:40
(UTC+00:00)

deb Explorer IX - Pass Details

Date: 28 January 2020
Orbit: 549 x 1099 km, 38.8° (Epoch: 20 February)

Event Time Altitude Azimuth Distance (km) Brightness Sun altitude
Rises 05:00:36 0° 275° (W) 3,852 - -66.7°
Reaches altitude 10° 05:03:20 10° 272° (W) 2,927 - -66.7°
Maximum altitude 05:10:28 61° 195° (SSW) 1,234 - -66.6°
Drops below altitude 10° 05:17:28 10° 117° (ESE) 2,871 - -66.3°
Sets 05:20:08 0° 114° (ESE) 3,774 - -66.2°
